Volver al catálogo

STARLINK-32797

ActivoComunicacionesVLEO
NORAD 62843·PAYLOAD·🇺🇸 United States

Lanzado Jan 27, 2025 desde Cape Canaveral Space Force Station

Loading…

Próximos Pases (próximas 24 horas)

TLE

ActualizadoSource: CelesTrak SupGP

Época: Sep 14, 2026, 21:38 UTC

1 62843C 25019Q   26257.90187500  .00006559  00000+0  23759-3 0  2572
2 62843  42.9998 100.3483 0001362 272.5987 288.6318 15.27570640    11

Sigue STARLINK-32797 en tiempo real con AllMySat

Download on the App Store